Powrót do katalogu

OPS 4682 DEB

AktywnyPO
NORAD 51497·DEBRIS·🇺🇸 United States

Wystrzelony Apr 3, 1965 z Vandenberg Space Force Base

Loading…

Następne Przeloty (najbliższe 24 godziny)

TLE

ŚwieżeSource: Space-Track

Epoka: Sep 12, 2026, 18:21 UTC

1 51497U 65027GH  26255.76492672  .00000154  00000-0  52621-3 0  9998
2 51497  90.2623  11.0266 0036089  47.4477 312.9679 12.94413934428804

Śledź OPS 4682 DEB w czasie rzeczywistym z AllMySat

Download on the App Store